This is the latest recevied weather packets stored in our database for station/object N3UJJ-1. If no packets are shown the sender has not sent any weather packets the latest 10 day(s).
| Time | Temp. | Humidity | Pressure | Rain* | Wind** | Luminosity | Snow |
|---|---|---|---|---|---|---|---|
| 1777386991 | 12.78° C | 85% | 1021.1 hPa | 0 mm | - | - | - |
| 1777386091 | 12.78° C | 83% | 1021.4 hPa | 0 mm | - | - | - |
| 1777385191 | 13.33° C | 79% | 1021.5 hPa | 0 mm | - | - | - |
| 1777384290 | 13.33° C | 81% | 1021.2 hPa | 0 mm | - | - | - |
| 1777383390 | 12.78° C | 80% | 1020.6 hPa | 0 mm | - | - | - |
| 1777382490 | 12.78° C | 81% | 1020.9 hPa | 0 mm | - | - | - |
| 1777381590 | 12.22° C | 80% | 1020.7 hPa | 0 mm | - | - | - |
| 1777380690 | 12.22° C | 82% | 1020.9 hPa | 0 mm | - | - | - |
| 1777379790 | 12.22° C | 87% | 1021.2 hPa | 0 mm | - | - | - |
| 1777378889 | 11.67° C | 91% | 1021.7 hPa | 0 mm | - | - | - |
| 1777377989 | 11.11° C | 93% | 1021.7 hPa | 0 mm | - | - | - |
| 1777377089 | 10° C | 95% | 1021.4 hPa | 0 mm | - | - | - |
| 1777376189 | 9.44° C | 96% | 1021.3 hPa | 0 mm | - | - | - |
| 1777375289 | 8.89° C | 96% | 1021.3 hPa | 0 mm | - | - | - |
| 1777374389 | 8.33° C | 96% | 1021.3 hPa | 0 mm | - | - | - |
| 1777373489 | 7.78° C | 95% | 1021.2 hPa | 0 mm | - | - | - |
| 1777372588 | 7.22° C | 95% | 1021.4 hPa | 0 mm | - | - | - |
| 1777371688 | 7.22° C | 95% | 1021.4 hPa | 0 mm | - | - | - |
| 1777370788 | 7.22° C | 95% | 1021.3 hPa | 0 mm | - | - | - |
| 1777369888 | 7.22° C | 95% | 1021.2 hPa | 0 mm | - | - | - |
| 1777368988 | 6.67° C | 94% | 1021.2 hPa | 0 mm | - | - | - |
| 1777368088 | 6.67° C | 94% | 1021.3 hPa | 0 mm | - | - | - |
| 1777367188 | 6.67° C | 94% | 1021.4 hPa | 0 mm | - | - | - |
| 1777366287 | 7.22° C | 94% | 1021.6 hPa | 0 mm | - | - | - |
| 1777365387 | 7.22° C | 93% | 1021.6 hPa | 0 mm | - | - | - |
* Rain latest hour (hover to see other rain measurements)
** Current wind speed in m/s (hover to see current wind gust speed)